Regional Weather Roundup
Issued by NWS

Home | Current Version | Previous Version | Graphics & Text | Print | Product List | Glossary On
Versions: 1 2 3 4 5 6 7 8 9 10 11 12 13 14 15 16 17 18 19 20 21 22 23 24 25 26 27 28 29 30 31 32 33 34 35 36 37 38 39 40 41 42 43 44 45 46 47 48 49 50
000
ASUS43 KOAX 301802
RWRNE

WEATHER ROUNDUP FOR NEBRASKA
NATIONAL WEATHER SERVICE OMAHA NE
100 PM CDT FRI SEP 30 2016

NOTES: SATELLITE DATA IS BEING USED TO AUGMENT CLOUD COVER ABOVE
       12000 FEET.
       "FAIR" INDICATES FEW OR NO CLOUDS BELOW 12,000 FEET WITH NO
       SIGNIFICANT WEATHER AND/OR OBSTRUCTIONS TO VISIBILITY.

  * THESE STATIONS DO NOT REPORT WEATHER SUCH AS RAIN...SNOW OR FOG.

NEZ001>004-019>022-054>056-301900-
NEBRASKA PANHANDLE

CITY           SKY/WX    TMP DP  RH WIND       PRES   REMARKS
SCOTTSBLUFF    CLOUDY    61  45  55 VRB5      30.18F
6HR MIN TEMP:  46; 6HR MAX TEMP:  62;

ALLIANCE       CLOUDY    62  44  51 S13       30.18S
6HR MIN TEMP:  43; 6HR MAX TEMP:  66;

CHADRON        PTSUNNY   72  46  39 SW14      30.11F
6HR MIN TEMP:  53; 6HR MAX TEMP:  72;

KIMBALL        CLOUDY    74  48  39 NW12      30.21F
SIDNEY         MOSUNNY   62  43  49 SE6       30.21F
6HR MIN TEMP:  41; 6HR MAX TEMP:  62;

$$

NEZ057>060-069>072-079>082-301900-
SOUTHWEST NEBRASKA

CITY           SKY/WX    TMP DP  RH WIND       PRES   REMARKS
NORTH PLATTE   MOSUNNY   69  46  43 SE15      30.22F
6HR MIN TEMP:  42; 6HR MAX TEMP:  70;

IMPERIAL       CLOUDY    68  45  43 SE15      30.20F
6HR MIN TEMP:  44; 6HR MAX TEMP:  68;

LEXINGTON      MOSUNNY   67  46  47 S9        30.24F
MCCOOK         MOSUNNY   69  47  45 S17       30.22F
6HR MIN TEMP:  44; 6HR MAX TEMP:  69;

OGALLALA       CLOUDY    67  46  46 S9        30.21F
$$

NEZ005>010-023>029-035>040-094-301900-
NORTH CENTRAL NEBRASKA

CITY           SKY/WX    TMP DP  RH WIND       PRES   REMARKS
VALENTINE      MOSUNNY   69  46  43 S17       30.19F
6HR MIN TEMP:  43; 6HR MAX TEMP:  69;

AINSWORTH      MOSUNNY   69  49  49 S16       30.22F
BROKEN BOW     MOSUNNY   64  46  52 S14       30.24F
6HR MIN TEMP:  35; 6HR MAX TEMP:  64;

O`NEILL        SUNNY     69  44  40 S13       30.25F
ORD            CLOUDY    68  43  40 S9        30.24F
6HR MIN TEMP:  35; 6HR MAX TEMP:  68; 6HR PCP: TRACE;

THEDFORD       MOSUNNY   66  48  52 S12       30.23S
$$

NEZ041-046>049-061>064-073>077-083>087-301900-
SOUTH CENTRAL NEBRASKA

CITY           SKY/WX    TMP DP  RH WIND       PRES   REMARKS
GRAND ISLAND   CLOUDY    67  45  45 VRB5      30.26F
6HR MIN TEMP:  40; 6HR MAX TEMP:  67;

AURORA         SUNNY     68  45  44 SE3       30.25F
HASTINGS       CLOUDY    67  45  45 S8G20     30.26F
6HR MIN TEMP:  41; 6HR MAX TEMP:  67;

HEBRON         SUNNY     69  46  43 E7        30.25F
HOLDREGE       MOSUNNY   65  45  47 S7        30.24F
KEARNEY *      MOSUNNY   66  46  48 SE6       30.24F
YORK           SUNNY     68  46  45 SE7       30.25F
$$

NEZ011>018-030>034-042>045-301900-
NORTHEAST NEBRASKA

CITY           SKY/WX    TMP DP  RH WIND       PRES   REMARKS
NORFOLK        SUNNY     70  46  42 E7        30.24F
6HR MIN TEMP:  36; 6HR MAX TEMP:  71;

ALBION         SUNNY     68  44  41 SE5       30.25F
BLAIR          SUNNY     70  50  50 N3        30.25F
FREMONT        SUNNY     69  48  46 E5        30.26F HAZE
TEKAMAH        SUNNY     72  48  42 MISG      30.25F
6HR MIN TEMP:  42; 6HR MAX TEMP:  72;

WAYNE          SUNNY     69  49  48 NE5       30.26F
$$

NEZ050>053-065>068-078-088>093-301900-
SOUTHEAST NEBRASKA

CITY           SKY/WX    TMP DP  RH WIND       PRES   REMARKS
LINCOLN        SUNNY     71  50  47 E6        30.25F
6HR MIN TEMP:  42; 6HR MAX TEMP:  71;

OMAHA EPPLEY   MOSUNNY   72  48  42 NE10      30.25F
6HR MIN TEMP:  46; 6HR MAX TEMP:  72;

BEATRICE         N/A     71  49  44 NE5       30.24F HAZE
FALLS CITY     SUNNY     72  49  44 N12G18    30.22F
6HR MIN TEMP:  46; 6HR MAX TEMP:  72;

NEBRASKA CITY  SUNNY     70  41  34 E8        30.25F
PLATTSMOUTH    SUNNY     71  43  37 NE9       30.25F
$$

NEZ044-045-051>053-067-301900-
OMAHA AREA

CITY           SKY/WX    TMP DP  RH WIND       PRES   REMARKS
OMAHA EPPLEY   MOSUNNY   72  48  42 NE10      30.25F
6HR MIN TEMP:  46; 6HR MAX TEMP:  72;

BLAIR          SUNNY     70  50  50 N3        30.25F
FREMONT        SUNNY     69  48  46 E5        30.26F HAZE
MILLARD        SUNNY     70  51  50 CALM      30.25F
OFFUTT AFB     SUNNY     71  51  48 VRB6      30.24F
PLATTSMOUTH    SUNNY     71  43  37 NE9       30.25F
WAHOO          FAIR      71  46  41 E8        30.25F
$$



USA.gov is the U.S. government's official web portal to all federal, state and local government web resources and services.